Accueil
METAR-TAF:

METAR-TAF

Aéroports :

Aéroport de Pontoise - Cormeilles-en-Vexin

Pontoise, France

latitude: 49-05-48N, longitude: 002-02-27E, altitude: 99 m

Observation

Le bulletin a été fait il y a 25 minutes, à 19:00 UTC
Vent 7 kt de nord
Température 11°C
Humidité 87%
Pression 1025 hPa
Visibilité: 6000 m

METAR: LFPT 191900Z AUTO 01007KT 6000 NSC 11/09 Q1025

Heure: 21:25 (19:25 UTC)


TAF: absent

Observations et prévisions météorologiques de plus de 4000 aéroports (messages METAR et TAF).

Les stations disponibles sont représentées par des disques jaunes et rouges sur la carte.

Passer la souris dessus pour voir le nom de la station.

Cliquer dessus pour voir les observations et prévisions météorologiques.

Pour changer de carte: cliquez sur les boutons verts avec une croix noire pour zoomer, sur le bouton vert avec un tiret pour effectuer un zoom arrière, ou sur les flèches vertes pour les cartes adjacentes.


METAR-TAF: